Location: La Bastide
(43.1661°N, 1.2755°E)
Time: 21:38:04
(UTC+00:00)

Cosmos 1937 Rocket - Visible Passes

Search period start: 16 March 2026 00:00
Search period end: 26 March 2026 00:00
Orbit: 741 x 776 km, 74.0° (Epoch: 15 March)

Date Brightness Start Highest point End Pass type
(mag) Time Alt. Az. Time Alt. Az. Time Alt. Az.
16 Mar 6.5 01:34:19 10° N 01:34:19 10° N 01:34:25 10° N visible
18 Mar 6.4 01:55:44 10° N 01:55:44 10° N 01:55:47 10° N visible
19 Mar 6.5 01:16:24 10° N 01:16:24 10° N 01:16:24 10° N visible
25 Mar 6.5 00:40:02 10° N 00:40:02 10° N 00:40:07 10° N visible
